Location: Catstown
(52.4386°N, 7.2633°W)
Time: 15:30:53
(UTC+00:00)

Cosmos 1833 Rocket - Pass Details

Date: 19 January 2021
Orbit: 833 x 839 km, 71.0° (Epoch: 06 March)

Event Time Altitude Azimuth Distance (km) Brightness Sun altitude
Rises 21:29:35 0° 324° (NW) 3,392 6.5 -41.2°
Reaches altitude 10° 21:32:16 10° 314° (NW) 2,454 5.7 -41.6°
Enters shadow 21:34:08 19° 301° (WNW) 1,883 5.0 -41.8°
